Regional Weather Roundup
Issued by NWS Sterling, VA

Home | Current Version | Previous Version | Text Only | Print | Product List | Glossary Off
Versions: 1 2 3 4 5 6 7 8 9 10 11 12 13 14 15 16 17 18 19 20 21 22 23 24 25 26 27 28 29 30 31 32 33 34 35 36 37 38 39 40 41 42 43 44 45 46 47 48 49 50

000
ASUS41 KLWX 240710
RWRLWX

REGIONAL WEATHER ROUNDUP
NATIONAL WEATHER SERVICE BALTIMORE MD/WASHINGTON DC
200 AM EST MON NOV 24 2014

Note: "FAIR" indicates few or no clouds below 12,000 feet
with no significant weather and/or obstructions to visibility.
 TC=TEMPERATURE CELSIUS

 * =Non NWS site. Station does not report precipitation (e.g. rain,
    snow, etc.), thunder, or fog.

DCZ001-MDZ009-015-VAZ040>042-051-053>054-240800-
WASHINGTON METRO

CITY           SKY/WX    TMP DP  RH WIND       PRES   REMARKS
WASHINGTON NAT CLOUDY    63  57  81 S21G26    29.67F
DULLES         CLOUDY    59  58  96 S15G31    29.65F
ANDREWS AFB    CLOUDY    61  60  99 SE18G33   29.67F
FT BELVOIR     CLOUDY    61  59  94 SE15G24   29.67F
QUANTICO       CLOUDY    54  52  93 S16       29.68F
COLLEGE PARK*  CLOUDY    61  61 100 S8        29.66F
LEESBURG*      LGT RAIN  59  59 100 MISG      29.66S
MANASSAS*      CLOUDY    61  61 100 S15G23    29.65F
GAITHERSBURG*  CLOUDY    57  55  94 SE16      29.69F

$$

MDZ006>007-011-014-240800-
BALTIMORE METRO

CITY           SKY/WX    TMP DP  RH WIND       PRES   REMARKS
BWI AIRPORT    LGT RAIN  59  57  93 SE15G25   29.68F
MD SCIENCE CTR   N/A     56  55  97 MISG      29.71F
MARTIN STATE   LGT RAIN  55  55 100 SE17G24   29.71F
ANNAPOLIS      LGT RAIN  58  56  93 S14G23    29.71F
FORT MEADE*    CLOUDY    57  55  94 SE10G20   29.69F

$$

MDZ012-015-019>023-240800-
MARYLAND EASTERN SHORE

CITY           SKY/WX    TMP DP  RH WIND       PRES   REMARKS
OCEAN CITY     LGT RAIN  57  56  96 S8        29.84F FOG
SALISBURY      LGT RAIN  66  61  84 S18G35    29.80F
BAY BRIDGE AP* LGT RAIN  59  59 100 SE18G26   29.70F
CAMBRIDGE*     CLOUDY    63  59  88 S22G36    29.73F
EASTON*        LGT RAIN  65  65 100 S23G31    29.75F

$$

MDZ017>025-240800-
SOUTHERN MARYLAND

CITY           SKY/WX    TMP DP  RH WIND       PRES   REMARKS
PATUXENT RIVER LGT RAIN  62  60  93 S23G38    29.72F
ST INIGOES     LGT RAIN  61  32  33 SE16G30   29.73F
LEONARDTOWN*   CLOUDY    61  57  88 SE20G30   29.72F

$$

MDZ003>005-240800-
NORTH CENTRAL MARYLAND

CITY           SKY/WX    TMP DP  RH WIND       PRES   REMARKS
FREDERICK*     DRIZZLE   63  57  82 S13       29.68S
HAGERSTOWN APT CLOUDY    57  54  89 S13       29.62F
WESTMINSTER*   RAIN      55  54  94 SE18G25   29.64F

$$

MDZ501>502-240800-
WESTERN MARYLAND

CITY           SKY/WX    TMP DP  RH WIND       PRES   REMARKS
OAKLAND*       CLOUDY    48 N/A N/A SE18G25   29.53F
CUMBERLAND*    CLOUDY    52  52 100 SW5       29.64F

$$

VAZ025>031-240800-
SHENANDOAH VALLEY

CITY           SKY/WX    TMP DP  RH WIND       PRES   REMARKS
WINCHESTER*    CLOUDY    54  50  87 SE13      29.62F
FRONT ROYAL*   CLOUDY    54  52  94 S5        29.62F
LURAY*         CLOUDY    59  59 100 SW7       29.64F
NEW MARKET*    CLOUDY    52  51  96 CALM      29.62F
STAUNTON*      CLOUDY    54  52  92 SW5       29.65F
WAYNESBORO*    CLOUDY    57  55  93 S8G17     29.64F

$$

WVZ021-048>050-054>055-240800-
EASTERN WEST VIRGINIA PANHANDLE

CITY           SKY/WX    TMP DP  RH WIND       PRES   REMARKS
MARTINSBURG    CLOUDY    53  50  89 S7        29.63F FOG
PETERSBURG*    CLOUDY    51  51 100 CALM      29.60F FOG

$$

VAZ036>039-050-240800-
CENTRAL FOOTHILLS

CITY           SKY/WX    TMP DP  RH WIND       PRES   REMARKS
CHARLOTTESVILL LGT RAIN  51  50  96 CALM      29.67R FOG
CULPEPER*      LGT RAIN  63  61  94 S6        29.66S
ORANGE*        RAIN      63  61  94 S8G21     29.67F
GORDONSVILLE*  CLOUDY    60  59  96 S7        29.65F
WARRENTON*     CLOUDY    63  63 100 S9G18     29.65S

$$

VAZ055>057-240800-
NORTH AND CENTRAL PIEDMONT

CITY           SKY/WX    TMP DP  RH WIND       PRES   REMARKS
FREDERICKSBRG* CLOUDY    64  64 100 S18G24    29.65F
STAFFORD*      CLOUDY    62  62 100 S10G18    29.70F

$$

NCZ024-NYZ072-PAZ021-071-VAZ022-071-240800-
OTHER REGIONAL OBSERVATIONS

CITY           SKY/WX    TMP DP  RH WIND       PRES   REMARKS
NEW YORK CITY  LGT RAIN  53  50  89 E5        29.91F FOG
PHILADELPHIA   RAIN      57  55  93 SE12G20   29.78F FOG
PITTSBURGH     CLOUDY    55  52  89 SE12      29.40F
ROANOKE        MOCLDY    48  47  96 N6        29.68R
RICHMOND       CLOUDY    65  62  90 S16G26    29.70F
RALEIGH        MOCLDY    64  60  87 S13       29.75S

$$

ANZ530>537-240800-
MARINE OBSERVATIONS

STATION/POSITION TIME  TEMP    WIND        PRES
                       AIR SEA DIR/SP/G
                 (UTC) (F)     (DEG/KT/KT) (MB)
THOMAS PT LIGHT  0700   57 48  170/ 29/ 33 1006.4F
BALT KEY BRIDGE  0700   55     120/ 14/ 19 1005.5F
COVE POINT       0700   53     180/ 18/ 21 1006.6F
LEWISETTA        0700   62 46  170/ 19/ 23 1006.3F
SOLOMONS ISLAND  0700      49                N/A
PINEY POINT      0700          170/ 22/ 24   N/A

$$



USA.gov is the U.S. government's official web portal to all federal, state and local government web resources and services.